When you browse on this site, cookies collect data to enhance your experience and personalize the content and advertising you see.
Visit our Privacy Policy to learn more. By continuing to use the site, you agree to this use of cookies and data.
  • In Sweden
  • List of Countries
  • For 7 days
  • Water Temperature
  • Weather Map
  • Weather Widgets
  • user-avatar
    Login

    Hourly Weather Kurytyba

    Today, 14 December, Saturday

    Time Temperature Precipitation Wind Pressure Humidity
    00:00 +18°C° 0 mm 2 mps 684 mmHg 89%
    01:00 +18°C° 0 mm 2 mps 683 mmHg 90%
    02:00 +17°C° 0 mm 2 mps 683 mmHg 91%
    03:00 +17°C° 0 mm 2 mps 683 mmHg 91%
    04:00 +17°C° 0 mm 2 mps 683 mmHg 90%
    05:00 +18°C° 0 mm 2 mps 683 mmHg 89%
    06:00 +18°C° 0 mm 2 mps 684 mmHg 88%
    07:00 +19°C° 0 mm 2 mps 684 mmHg 85%
    08:00 +20°C° 0 mm 2 mps 685 mmHg 81%
    09:00 +21°C° 0 mm 2 mps 685 mmHg 77%
    10:00 +23°C° 0 mm 2 mps 685 mmHg 73%
    11:00 +24°C° 0 mm 2 mps 685 mmHg 70%
    12:00 +25°C° 0 mm 2 mps 685 mmHg 66%
    13:00 +25°C° 0.1 mm 2 mps 685 mmHg 67%
    14:00 +25°C° 0.1 mm 2 mps 684 mmHg 68%
    15:00 +25°C° 0.1 mm 2 mps 684 mmHg 70%
    16:00 +24°C° 0 mm 2 mps 683 mmHg 73%
    17:00 +23°C° 0 mm 2 mps 683 mmHg 77%
    18:00 +23°C° 0 mm 2 mps 682 mmHg 81%
    19:00 +21°C° 0 mm 2 mps 683 mmHg 85%
    20:00 +20°C° 0 mm 2 mps 683 mmHg 89%
    21:00 +19°C° 0 mm 2 mps 684 mmHg 93%
    22:00 +19°C° 0 mm 2 mps 684 mmHg 93%
    23:00 +19°C° 0 mm 2 mps 684 mmHg 92%

    Tomorrow, 15 December, Sunday

    Time Temperature Precipitation Wind Pressure Humidity
    00:00 +19°C° 0 mm 2 mps 684 mmHg 91%
    01:00 +19°C° 0 mm 2 mps 683 mmHg 92%
    02:00 +20°C° 0 mm 1 mps 683 mmHg 94%
    03:00 +20°C° 0 mm 1 mps 682 mmHg 95%
    04:00 +20°C° 0 mm 1 mps 682 mmHg 94%
    05:00 +20°C° 0 mm 1 mps 682 mmHg 94%
    06:00 +20°C° 0 mm 1 mps 682 mmHg 93%
    07:00 +21°C° 0 mm 1 mps 682 mmHg 87%
    08:00 +21°C° 0 mm 2 mps 682 mmHg 81%
    09:00 +23°C° 0 mm 2 mps 683 mmHg 76%
    10:00 +24°C° 0.5 mm 2 mps 682 mmHg 75%
    11:00 +24°C° 0.5 mm 3 mps 682 mmHg 75%
    12:00 +24°C° 0.5 mm 3 mps 682 mmHg 74%
    13:00 +24°C° 0.2 mm 3 mps 681 mmHg 75%
    14:00 +24°C° 0.2 mm 3 mps 680 mmHg 76%
    15:00 +24°C° 0.2 mm 3 mps 680 mmHg 77%
    16:00 +24°C° 0.1 mm 2 mps 680 mmHg 77%
    17:00 +24°C° 0.1 mm 2 mps 680 mmHg 78%
    18:00 +24°C° 0.1 mm 2 mps 679 mmHg 78%
    19:00 +24°C° 0.4 mm 2 mps 680 mmHg 80%
    20:00 +23°C° 0.4 mm 2 mps 680 mmHg 82%
    21:00 +21°C° 0.4 mm 3 mps 680 mmHg 84%
    22:00 +21°C° 0.2 mm 3 mps 680 mmHg 85%
    23:00 +21°C° 0.2 mm 3 mps 680 mmHg 85%

    Day after tomorrow, 16 December, Monday

    Time Temperature Precipitation Wind Pressure Humidity
    00:00 +21°C° 0.2 mm 3 mps 680 mmHg 86%
    01:00 +21°C° 0.2 mm 3 mps 679 mmHg 87%
    02:00 +21°C° 0.2 mm 3 mps 679 mmHg 87%
    03:00 +20°C° 0.2 mm 2 mps 678 mmHg 88%
    04:00 +20°C° 1.4 mm 3 mps 678 mmHg 90%
    05:00 +20°C° 1.4 mm 3 mps 678 mmHg 92%
    06:00 +20°C° 1.4 mm 3 mps 678 mmHg 94%
    07:00 +21°C° 0.2 mm 3 mps 678 mmHg 89%
    08:00 +22°C° 0.2 mm 4 mps 679 mmHg 83%
    09:00 +23°C° 0.2 mm 4 mps 679 mmHg 77%
    10:00 +25°C° 0.3 mm 4 mps 679 mmHg 75%
    11:00 +26°C° 0.3 mm 4 mps 679 mmHg 72%
    12:00 +27°C° 0.3 mm 4 mps 678 mmHg 69%
    13:00 +26°C° 1.6 mm 4 mps 678 mmHg 76%
    14:00 +25°C° 1.6 mm 3 mps 677 mmHg 82%
    15:00 +24°C° 1.6 mm 3 mps 677 mmHg 88%
    16:00 +22°C° 2.6 mm 3 mps 677 mmHg 90%
    17:00 +21°C° 2.6 mm 3 mps 677 mmHg 92%
    18:00 +20°C° 2.6 mm 2 mps 677 mmHg 94%
    19:00 +20°C° 3.7 mm 2 mps 677 mmHg 95%
    20:00 +20°C° 3.7 mm 2 mps 677 mmHg 95%
    21:00 +21°C° 3.7 mm 1 mps 677 mmHg 95%
    22:00 +20°C° 1.9 mm 1 mps 677 mmHg 95%
    23:00 +19°C° 1.9 mm 2 mps 677 mmHg 95%

    17 December, Tuesday

    Time Temperature Precipitation Wind Pressure Humidity
    00:00 +19°C° 1.9 mm 2 mps 677 mmHg 94%
    01:00 +19°C° 0.2 mm 2 mps 677 mmHg 95%
    02:00 +19°C° 0.2 mm 2 mps 677 mmHg 95%
    03:00 +19°C° 0.2 mm 2 mps 676 mmHg 95%
    04:00 +19°C° 1.7 mm 2 mps 676 mmHg 95%
    05:00 +19°C° 1.7 mm 2 mps 676 mmHg 95%
    06:00 +19°C° 1.7 mm 3 mps 676 mmHg 95%
    07:00 +19°C° 5.6 mm 2 mps 676 mmHg 96%
    08:00 +19°C° 5.6 mm 2 mps 677 mmHg 96%
    09:00 +20°C° 5.6 mm 1 mps 677 mmHg 97%
    10:00 +20°C° 0.8 mm 2 mps 677 mmHg 94%
    11:00 +21°C° 0.8 mm 2 mps 677 mmHg 92%
    12:00 +23°C° 0.8 mm 2 mps 677 mmHg 89%
    13:00 +21°C° 1.4 mm 2 mps 676 mmHg 90%
    14:00 +21°C° 1.4 mm 2 mps 676 mmHg 92%
    15:00 +21°C° 1.4 mm 2 mps 675 mmHg 93%
    16:00 +22°C° 3.4 mm 1 mps 675 mmHg 94%
    17:00 +21°C° 3.4 mm 1 mps 675 mmHg 95%
    18:00 +19°C° 3.4 mm 0 mps 675 mmHg 96%
    19:00 +20°C° 3 mm 1 mps 676 mmHg 96%
    20:00 +19°C° 3 mm 2 mps 677 mmHg 96%
    21:00 +19°C° 3 mm 3 mps 677 mmHg 96%
    22:00 +17°C° 1.8 mm 3 mps 677 mmHg 96%
    23:00 +16°C° 1.8 mm 3 mps 678 mmHg 95%

    18 December, Wednesday

    Time Temperature Precipitation Wind Pressure Humidity
    00:00 +14°C° 1.8 mm 4 mps 678 mmHg 94%
    01:00 +14°C° 1.1 mm 3 mps 678 mmHg 94%
    02:00 +14°C° 1.1 mm 3 mps 678 mmHg 95%
    03:00 +14°C° 1.1 mm 3 mps 678 mmHg 95%
    04:00 +14°C° 0.3 mm 3 mps 678 mmHg 95%
    05:00 +14°C° 0.3 mm 3 mps 679 mmHg 95%
    06:00 +14°C° 0.3 mm 3 mps 680 mmHg 95%
    07:00 +15°C° 0.7 mm 2 mps 680 mmHg 95%
    08:00 +15°C° 0.7 mm 2 mps 680 mmHg 95%
    09:00 +16°C° 0.7 mm 2 mps 681 mmHg 95%
    10:00 +16°C° 0.2 mm 2 mps 681 mmHg 92%
    11:00 +16°C° 0.2 mm 3 mps 681 mmHg 90%
    12:00 +17°C° 0.2 mm 3 mps 681 mmHg 87%
    13:00 +17°C° 0.1 mm 3 mps 681 mmHg 85%
    14:00 +17°C° 0.1 mm 3 mps 681 mmHg 84%
    15:00 +18°C° 0.1 mm 3 mps 681 mmHg 82%
    16:00 +17°C° 0 mm 3 mps 681 mmHg 83%
    17:00 +17°C° 0 mm 3 mps 681 mmHg 84%
    18:00 +17°C° 0 mm 3 mps 682 mmHg 84%
    19:00 +16°C° 0 mm 3 mps 682 mmHg 86%
    20:00 +16°C° 0 mm 2 mps 682 mmHg 88%
    21:00 +15°C° 0 mm 2 mps 682 mmHg 89%
    22:00 +15°C° 0 mm 2 mps 682 mmHg 90%
    23:00 +16°C° 0 mm 2 mps 682 mmHg 91%

    19 December, Thursday

    Time Temperature Precipitation Wind Pressure Humidity
    00:00 +16°C° 0 mm 2 mps 682 mmHg 92%
    01:00 +16°C° 0 mm 2 mps 682 mmHg 92%
    02:00 +16°C° 0 mm 2 mps 681 mmHg 92%
    03:00 +16°C° 0 mm 2 mps 681 mmHg 93%
    04:00 +16°C° 0 mm 2 mps 681 mmHg 93%
    05:00 +17°C° 0 mm 2 mps 681 mmHg 93%
    06:00 +17°C° 0 mm 2 mps 681 mmHg 94%
    07:00 +17°C° 0.1 mm 2 mps 682 mmHg 93%
    08:00 +18°C° 0.1 mm 2 mps 682 mmHg 92%
    09:00 +18°C° 0.1 mm 2 mps 683 mmHg 91%
    10:00 +19°C° 0.2 mm 2 mps 683 mmHg 90%
    11:00 +19°C° 0.2 mm 2 mps 683 mmHg 89%
    12:00 +19°C° 0.2 mm 2 mps 683 mmHg 88%
    13:00 +19°C° 0.2 mm 2 mps 682 mmHg 89%
    14:00 +19°C° 0.2 mm 2 mps 682 mmHg 89%
    15:00 +19°C° 0.2 mm 2 mps 681 mmHg 89%
    16:00 +19°C° 0.1 mm 2 mps 681 mmHg 89%
    17:00 +19°C° 0.1 mm 2 mps 681 mmHg 89%
    18:00 +19°C° 0.1 mm 2 mps 681 mmHg 89%
    19:00 +18°C° 0 mm 2 mps 681 mmHg 90%
    20:00 +18°C° 0 mm 2 mps 682 mmHg 92%
    21:00 +18°C° 0 mm 2 mps 682 mmHg 93%
    22:00 +18°C° 0 mm 2 mps 682 mmHg 93%
    23:00 +19°C° 0 mm 1 mps 682 mmHg 94%
    Show more